Flag for Switzerland Weather past 2 weeks in Pratteln, Basel-Land, Switzerland

Now
64 °F

Broken clouds.


Feels Like: 64 °F
Forecast: 54 / 67 °F
Wind: 7 mph from Northwest

Location: Bale-Mulhouse

Current Time: Sep 2, 2015 at 9:06:40 PM

Latest Report: Sep 2, 2015 at 8:30 PM


Visibility: N/A

Pressure: 29.98 "Hg

Humidity: 68%

Dew point: 54 °F

Location of PrattelnLocation

Historic Weather in Pratteln — Graph

°F

Pratteln temperature yesterday

Maximum temperature yesterday: 79 °F (at 12:00 PM)
Minimum temperature yesterday: 61 °F (at 11:30 PM)
Average temperature yesterday: 69 °F

Past Weeks' High & Low Weather Summary

 TemperatureHumidityPressure
High93 °F (Aug 30, 4:00 PM)100% (Aug 20, 4:00 AM)30.24 "Hg (Aug 20, 4:00 AM)
Low48 °F (Aug 20, 6:30 AM)23% (Aug 30, 5:00 PM)29.71 "Hg (Aug 24, 5:00 AM)
Average68 °F70%30.03 "Hg
* Reported Aug 18 8:00 PM — Sep 2 8:00 PM, Pratteln, Weather by CustomWeather, © 2015

Note: Actual official high and low records may vary slightly from our data, if they occured in-between our weather recording intervals... More about our weather records

Advertising

Pratteln weather history for previous 24 hours

 ConditionsComfort  
Time TempWeatherWind HumidityBarometerVisibility
8:00 PM
Wed, Sep 2
66 °FBroken clouds.7 mph60%29.98 "HgN/A
7:30 PM68 °FPartly sunny.8 mph60%29.98 "HgN/A
7:00 PM70 °FPartly sunny.9 mph57%29.98 "HgN/A
6:30 PM70 °FPassing clouds.7 mph53%29.98 "HgN/A
6:00 PM72 °FBroken clouds.5 mph47%29.98 "HgN/A
5:30 PM72 °FPartly sunny.6 mph47%29.98 "HgN/A
5:00 PM73 °FPartly sunny.3 mph44%29.98 "HgN/A
4:30 PM72 °FPartly sunny.7 mph47%29.98 "HgN/A
4:00 PM73 °FScattered clouds.3 mph44%29.98 "HgN/A
3:30 PM73 °FPassing clouds.3 mph44%29.98 "HgN/A
3:00 PM73 °FPassing clouds.3 mph47%30.01 "HgN/A
2:30 PM72 °FPassing clouds.3 mph47%30.01 "HgN/A
2:00 PM70 °FPassing clouds.5 mph53%30.01 "HgN/A
1:30 PM70 °FPassing clouds.3 mph57%30.01 "HgN/A
1:00 PM68 °FPassing clouds.5 mph60%30.01 "HgN/A
12:30 PM68 °FPassing clouds.3 mph60%30.04 "HgN/A
12:00 PM64 °FScattered clouds.5 mph73%30.04 "HgN/A
11:30 AM66 °FScattered clouds.5 mph64%30.04 "HgN/A
11:00 AM66 °FPassing clouds.3 mph73%30.04 "HgN/A
10:30 AM64 °FPassing clouds.1 mph73%30.04 "HgN/A
10:00 AM63 °FPassing clouds.2 mph77%30.04 "Hg6 mi
9:30 AM59 °FBroken clouds.2 mph88%30.04 "Hg4 mi
9:00 AM57 °FFog.2 mph94%30.04 "Hg6 mi
8:30 AM57 °FFog.2 mph94%30.07 "Hg6 mi
8:00 AM55 °FFog.2 mph100%30.07 "Hg6 mi
7:30 AM55 °FFog.1 mph100%30.04 "Hg5 mi
7:00 AM55 °FFog.No wind100%30.04 "Hg5 mi
6:00 AM52 °FCool.1 mph100%30.04 "Hg5 mi
5:30 AM54 °FFog.No wind100%30.07 "Hg2 mi
5:00 AM54 °FFog.2 mph100%30.07 "Hg2 mi
4:30 AM55 °FPassing clouds.No wind94%30.07 "HgN/A
4:00 AM54 °FPassing clouds.2 mph100%30.07 "HgN/A
3:30 AM54 °FDense fog.No wind100%30.07 "Hg1 mi
3:00 AM55 °FFog.No wind94%30.07 "Hg2 mi
2:30 AM57 °FClear.1 mph94%30.07 "HgN/A
2:00 AM59 °FPassing clouds.1 mph94%30.09 "HgN/A
1:30 AM59 °FMostly cloudy.No wind94%30.09 "HgN/A
1:00 AM59 °FPassing clouds.3 mph94%30.09 "HgN/A
11:30 PM
Tue, Sep 1
61 °FPartly cloudy.No wind94%30.07 "HgN/A
11:00 PM63 °FPartly cloudy.5 mph88%30.07 "HgN/A
10:30 PM63 °FPartly cloudy.3 mph94%30.07 "HgN/A
10:00 PM63 °FPartly cloudy.3 mph88%30.07 "HgN/A
9:30 PM64 °FPartly cloudy.6 mph88%30.07 "HgN/A
9:00 PM63 °FBroken clouds.5 mph94%30.07 "HgN/A
Weather by CustomWeather, © 2015

See weather overviewHow to use our weather pages